[[{"header":{"parameterUnit":"m.s-1","parameterCategory":1,"la1":30.2991,"la2":30.254,"lo1":-89.0895,"lo2":-89.0444,"dy":0.0017,"dx":0.0017,"nx":28,"ny":28,"refTime":"2025-06-05T21:00:00:Z","depth":0,"parameterNumber":2,"parameterNumberName":"U-component_of_WINDS"},"data":[0,0,0,0,0,0,0,0,0,0,0,0,0,0,0,0,0,0,0,0,0,0,0,0,0,0,0,0,0,0,0,0,0,0,0,0,0,0,0,0,0,0,0,0,0,0,0,0,0,0,0,0,0,0,0,0,0,0,2.2459,2.246,0,2.2569,2.2571,2.2572,2.262,2.262,2.262,2.262,2.2738,2.2741,2.2744,0,0,0,0,0,0,0,0,0,0,0,0,0,2.2297,2.23,2.2459,2.246,2.2462,2.2569,2.2571,2.2572,2.262,2.262,2.262,2.2619,2.2737,2.2741,2.2745,0,0,0,0,0,0,0,0,0,0,0,0,0,2.2383,2.23,2.2459,2.2498,2.2503,2.2569,2.2571,2.2573,2.262,2.262,2.262,2.2619,2.2735,2.274,2.2745,2.2781,0,0,2.276,2.2762,0,0,0,0,0,0,0,0,2.2378,2.2389,2.2491,2.2496,2.2501,2.2581,2.2557,2.2643,2.262,2.2576,2.262,2.2619,2.2686,2.2695,2.2716,2.2787,2.2792,2.2761,2.2764,2.2766,2.2767,0,0,0,0,0,0,0,2.2372,2.2385,2.2503,2.2493,2.2499,2.2513,2.2525,2.2573,2.2631,2.258,2.2583,2.2596,2.2689,2.2712,2.272,2.2793,2.2761,2.2765,2.2768,2.277,2.2902,2.2902,0,0,0,0,0,0,2.2359,2.2379,2.2499,2.2506,2.2438,2.2516,2.253,2.2555,2.2631,2.2642,2.2596,2.2597,2.2703,2.2714,2.2724,2.2772,2.2766,2.277,2.2773,2.2901,2.2902,2.2903,0,0,0,0,0,0,2.2355,2.2369,2.2495,2.2444,2.2461,2.2519,2.2548,2.2558,2.258,2.2643,2.2654,2.2608,2.2703,2.2717,2.2767,2.2777,2.2773,2.2777,2.2901,2.2902,2.2902,2.2868,0,0,0,0,0,0,2.235,2.2367,2.238,2.2444,2.2463,2.2533,2.2548,2.256,2.2588,2.2592,2.2657,2.2668,2.2704,2.2759,2.2772,2.2784,2.2781,2.29,2.2901,2.2902,2.2868,2.2868,2.2867,0,0,0,0,0,2.2344,2.2366,2.238,2.2394,2.248,2.2534,2.2545,2.2585,2.2589,2.2603,2.2644,2.2666,2.2774,2.2764,2.2778,2.2792,2.29,2.2901,2.2902,2.2869,2.2868,2.2867,0,0,0,0,0,0,2.2303,2.2375,2.2391,2.2434,2.2477,2.2542,2.256,2.2582,2.2626,2.2628,2.2677,2.2692,2.2738,2.2771,2.2758,2.2832,2.2839,2.2843,2.2809,2.2808,2.2807,2.2798,2.2785,0,0,0,0,0,2.2298,2.2334,2.2397,2.2429,2.2449,2.2501,2.2526,2.2553,2.2601,2.262,2.2664,2.2711,2.2756,2.2784,2.2829,2.2874,2.289,2.2891,2.289,2.2889,2.2892,2.2921,2.2922,2.2906,2.2906,2.2906,0,0,2.229,2.2334,2.2354,2.2421,2.2458,2.2496,2.2516,2.2555,2.2585,2.2626,2.2675,2.271,2.2766,2.2814,2.2838,2.2843,2.29,2.2891,2.2889,2.2893,2.2922,2.2924,2.2925,2.2907,2.2907,2.2907,0,0,2.2294,2.2331,2.2362,2.2398,2.2454,2.2488,2.2496,2.2558,2.2582,2.2632,2.2665,2.2702,2.2778,2.2817,2.2846,2.2869,2.2892,2.2883,2.2878,2.2905,2.2906,2.2907,2.2916,2.2919,2.2885,2.2885,2.2885,0,2.2277,2.2334,2.2376,2.2413,2.2443,2.2482,2.2516,2.255,2.2617,2.2638,2.2643,2.274,2.278,2.2839,2.2844,2.2867,2.2879,2.2874,2.2902,2.2904,2.2906,2.2915,2.2918,2.2884,2.2884,2.2884,2.2884,0,2.2311,2.235,2.2369,2.2432,2.2465,2.25,2.255,2.2578,2.2604,2.2639,2.2691,2.2741,2.2797,2.2814,2.2839,2.2877,2.2879,2.2892,2.29,2.2905,2.2915,2.2918,2.2882,2.2882,2.2883,2.2883,0,0,2.2289,2.2376,2.2383,2.2413,2.2478,2.251,2.255,2.2603,2.2627,2.2674,2.2709,2.2774,2.2787,2.2821,2.2852,2.2876,2.2892,2.2887,2.2889,2.2886,2.2939,2.2927,2.2931,2.2908,2.2909,2.291,2.2934,0,2.2302,2.237,2.2411,2.2464,2.2502,2.2542,2.2576,2.2621,2.2656,2.2696,2.2736,2.2781,2.2795,2.2816,2.2841,2.2884,2.2903,2.2883,2.2943,2.2944,2.2926,2.2935,2.2923,2.2944,2.2938,2.2939,2.2939,0,2.2325,2.237,2.2426,2.2489,2.2507,2.2537,2.2591,2.2628,2.2681,2.2705,2.2744,2.2775,2.2821,2.2826,2.2891,2.2876,2.2904,2.2929,2.2931,2.2938,2.2941,2.2942,2.2951,2.2954,2.2945,2.2945,2.2944,0,2.2304,2.2378,2.2422,2.2447,2.2522,2.2542,2.2575,2.2628,2.2659,2.2707,2.2728,2.2782,2.2811,2.2853,2.2899,2.2898,2.296,2.2968,2.2982,2.2981,2.2992,2.2991,2.3005,2.3011,2.3011,2.3011,2.3011,0,2.2313,2.2346,2.2414,2.2441,2.2481,2.2529,2.2567,2.2603,2.2651,2.2688,2.2726,2.276,2.2819,2.2862,2.2898,2.2947,2.296,2.2983,2.2992,2.2979,2.2976,2.2996,2.2996,2.3012,2.3011,2.3011,2.3011,0,2.2295,2.2341,2.2392,2.2459,2.2477,2.2504,2.2562,2.2592,2.263,2.2676,2.269,2.275,2.2802,2.2852,2.2922,2.2947,2.2996,2.3009,2.2977,2.2982,2.2994,2.2992,2.3021,2.3028,2.3029,2.3029,2.3029,0,2.2297,2.2324,2.2394,2.2421,2.2452,2.2495,2.2526,2.2576,2.2608,2.2673,2.2695,2.275,2.2795,2.2877,2.2929,2.2984,2.2998,2.3005,2.3006,2.2993,2.2998,2.2995,2.2999,2.3003,2.3002,2.3002,2.3002,0,2.2297,2.2319,2.2362,2.2414,2.2451,2.2495,2.254,2.2561,2.262,2.2654,2.2707,2.2743,2.2815,2.287,2.2931,2.2967,2.2995,2.3002,2.3008,2.2994,2.2975,2.2986,2.2973,2.3,2.3,2.3,2.3001,2.3001,2.2289,2.2315,2.2369,2.2417,2.2457,2.2499,2.253,2.2572,2.2617,2.2678,2.2706,2.276,2.2816,2.2901,2.2937,2.2982,2.2989,2.2997,2.3,2.3001,2.2998,2.2968,2.2993,2.2993,2.2994,2.2994,2.2994,0,2.2291,2.2328,2.2371,2.2434,2.2472,2.2495,2.2547,2.2578,2.2625,2.2674,2.2719,2.2782,2.2836,2.2892,2.295,2.2975,2.299,2.2988,2.2987,2.2995,2.2989,2.2977,2.2976,2.2976,2.2976,2.2976,2.2976,2.2976,2.2296,2.2341,2.2371,2.2438,2.2476,2.2528,2.2556,2.2596,2.2636,2.2704,2.2748,2.2785,2.2838,2.2901,2.2952,2.2968,2.2987,2.2983,2.3002,2.2994,2.2995,2.2996,2.2986,2.2986,2.2986,2.3005,2.3005,2.3005]},{"header":{"parameterUnit":"m.s-1","parameterCategory":1,"la1":30.2991,"la2":30.254,"lo1":-89.0895,"lo2":-89.0444,"dy":0.0017,"dx":0.0017,"nx":28,"ny":28,"refTime":"2025-06-05T21:00:00:Z","depth":0,"parameterNumber":3,"parameterNumberName":"V-component_of_WINDS"},"data":[0,0,0,0,0,0,0,0,0,0,0,0,0,0,0,0,0,0,0,0,0,0,0,0,0,0,0,0,0,0,0,0,0,0,0,0,0,0,0,0,0,0,0,0,0,0,0,0,0,0,0,0,0,0,0,0,0,0,4.6116,4.6117,0,4.6226,4.6227,4.6228,4.6255,4.6255,4.6254,4.6253,4.6356,4.636,4.6363,0,0,0,0,0,0,0,0,0,0,0,0,0,4.5918,4.5922,4.6115,4.6117,4.6118,4.6225,4.6227,4.6228,4.6255,4.6255,4.6254,4.6253,4.6355,4.6359,4.6363,0,0,0,0,0,0,0,0,0,0,0,0,0,4.6014,4.5923,4.6115,4.6145,4.6149,4.6225,4.6227,4.6229,4.6256,4.6255,4.6254,4.6253,4.6354,4.6359,4.6364,4.6415,0,0,4.6379,4.6381,0,0,0,0,0,0,0,0,4.6008,4.6021,4.6139,4.6143,4.6147,4.6226,4.6195,4.6291,4.6256,4.6215,4.6253,4.6252,4.6313,4.6321,4.6344,4.642,4.6425,4.638,4.6383,4.6385,4.6386,0,0,0,0,0,0,0,4.6002,4.6016,4.6159,4.6141,4.6146,4.6149,4.6162,4.6213,4.6268,4.6218,4.6221,4.6234,4.6315,4.6339,4.6347,4.6426,4.638,4.6384,4.6387,4.6389,4.6548,4.6549,0,0,0,0,0,0,4.5991,4.601,4.6155,4.6162,4.6074,4.6154,4.6168,4.6202,4.6268,4.6277,4.6234,4.6235,4.6331,4.6341,4.635,4.6415,4.6385,4.639,4.6393,4.6547,4.6548,4.655,0,0,0,0,0,0,4.5987,4.6004,4.6151,4.6087,4.6106,4.6158,4.6196,4.6204,4.6229,4.628,4.6289,4.625,4.6331,4.6343,4.6399,4.6418,4.6392,4.6397,4.6546,4.6547,4.6549,4.6543,0,0,0,0,0,0,4.5981,4.6002,4.6025,4.6087,4.6109,4.6201,4.6197,4.6207,4.6238,4.6239,4.6297,4.6305,4.6331,4.6392,4.6404,4.6425,4.6401,4.6544,4.6546,4.6548,4.6542,4.6545,4.6547,0,0,0,0,0,4.5974,4.6017,4.6026,4.6043,4.614,4.6202,4.6214,4.6246,4.624,4.6261,4.6294,4.6303,4.6414,4.6397,4.6412,4.6434,4.6543,4.6546,4.6548,4.6541,4.6544,4.6547,0,0,0,0,0,0,4.5952,4.6026,4.6037,4.6102,4.6146,4.6207,4.6235,4.6249,4.6293,4.6292,4.6326,4.6338,4.6392,4.6418,4.6398,4.6486,4.6478,4.6484,4.6468,4.6471,4.6474,4.6466,4.6405,0,0,0,0,0,4.5956,4.6004,4.6064,4.6116,4.6138,4.6183,4.6211,4.6232,4.6277,4.6295,4.6332,4.6373,4.6417,4.6446,4.6489,4.6546,4.6557,4.6568,4.657,4.6572,4.6577,4.6607,4.6612,4.6558,4.6558,4.6558,0,0,4.5962,4.6008,4.6036,4.6113,4.615,4.6195,4.6198,4.6247,4.628,4.6302,4.6358,4.6386,4.6434,4.649,4.6517,4.6514,4.6594,4.6576,4.6577,4.658,4.661,4.6615,4.662,4.656,4.656,4.656,0,0,4.5998,4.6039,4.6086,4.6123,4.6179,4.6209,4.622,4.6279,4.6299,4.6357,4.6373,4.6411,4.6487,4.6521,4.6547,4.6594,4.6603,4.6606,4.6619,4.6649,4.6653,4.6657,4.6672,4.6678,4.6611,4.6611,4.6611,0,4.5998,4.6072,4.6107,4.6156,4.6188,4.6212,4.6258,4.6291,4.6357,4.6377,4.6374,4.6469,4.6503,4.6567,4.6578,4.6599,4.6611,4.66,4.665,4.6654,4.6658,4.6673,4.6679,4.6611,4.6611,4.6611,4.6611,0,4.6068,4.6119,4.6149,4.6216,4.6251,4.6298,4.6338,4.6368,4.6385,4.6414,4.647,4.6512,4.6564,4.658,4.6596,4.6646,4.6642,4.6644,4.6636,4.6663,4.6678,4.6684,4.6611,4.6611,4.6611,4.6611,0,0,4.6094,4.618,4.6191,4.6221,4.6284,4.6322,4.6368,4.6422,4.6447,4.6491,4.6529,4.6592,4.6594,4.6624,4.6643,4.6669,4.6702,4.6667,4.6669,4.6672,4.6758,4.6756,4.6763,4.6708,4.671,4.6711,4.6753,0,4.6137,4.6225,4.6258,4.6329,4.6374,4.6397,4.6437,4.6478,4.6505,4.6545,4.6573,4.6618,4.6617,4.6636,4.6662,4.6693,4.6719,4.669,4.6742,4.6743,4.6729,4.6771,4.677,4.6808,4.676,4.6761,4.6761,0,4.62,4.6248,4.6324,4.6381,4.6401,4.6437,4.6488,4.6527,4.6572,4.659,4.6624,4.6642,4.6687,4.6677,4.6739,4.6718,4.674,4.6758,4.676,4.6766,4.6754,4.6777,4.6821,4.6827,4.6771,4.677,4.6769,0,4.621,4.6293,4.635,4.6374,4.6442,4.6467,4.6495,4.6541,4.6571,4.6614,4.6633,4.6679,4.6705,4.6739,4.6767,4.6757,4.6826,4.6818,4.684,4.684,4.6854,4.6853,4.6902,4.6869,4.6869,4.6868,4.6868,0,4.6255,4.63,4.6355,4.639,4.644,4.6475,4.6523,4.6552,4.6592,4.663,4.6651,4.6685,4.6721,4.6759,4.6781,4.6829,4.684,4.6853,4.6859,4.6852,4.685,4.6867,4.6865,4.687,4.687,4.6869,4.6869,0,4.6275,4.6314,4.6377,4.6437,4.6453,4.6487,4.6536,4.6569,4.6597,4.6644,4.6657,4.67,4.6746,4.6778,4.6836,4.6851,4.6902,4.6906,4.6887,4.689,4.691,4.6908,4.6972,4.6982,4.6942,4.6942,4.6942,0,4.6301,4.6337,4.6401,4.643,4.646,4.6505,4.6536,4.6571,4.6602,4.6656,4.6681,4.673,4.677,4.6841,4.6875,4.6919,4.6925,4.6945,4.6932,4.6924,4.6925,4.6923,4.6926,4.6947,4.6947,4.6947,4.6947,0,4.6343,4.636,4.6407,4.6459,4.6497,4.6539,4.6581,4.6602,4.6643,4.6676,4.6725,4.6757,4.6817,4.6863,4.6911,4.6936,4.6948,4.6951,4.6959,4.6952,4.6939,4.6946,4.6892,4.695,4.6949,4.6949,4.6949,4.6949,4.6367,4.6399,4.645,4.65,4.6536,4.6575,4.6608,4.6641,4.6684,4.6738,4.6755,4.6805,4.6847,4.6912,4.6939,4.6976,4.6974,4.6985,4.6988,4.699,4.699,4.6933,4.6984,4.6984,4.6984,4.6984,4.6984,0,4.6409,4.6443,4.6489,4.6549,4.6587,4.6598,4.6644,4.6675,4.672,4.676,4.68,4.6855,4.69,4.6938,4.6983,4.7006,4.7012,4.7017,4.7015,4.7021,4.6989,4.6978,4.7011,4.7011,4.7011,4.7011,4.7011,4.7011,4.6436,4.6492,4.6515,4.6588,4.662,4.6672,4.6698,4.6732,4.6765,4.6827,4.6865,4.6891,4.6929,4.6977,4.7018,4.7028,4.7043,4.7046,4.7057,4.7026,4.7023,4.702,4.701,4.7049,4.7049,4.7086,4.7086,4.7086]}]]